Find Kosmos-2329

NORAD ID: 23791 Int'l Des: 1996-009 Owner: VKS Country: RU operational
LEOCIRCULARPOLAR

Current View

Loading 3D Globe...

About Kosmos-2329

Kosmos-2329 (NORAD 23791) is a satellite launched Feb 19, 1996 by VKS of RU. It operates in LEO, CIRCULAR, POLAR orbit with a mass of 225.00 kg.

Upcoming Passes

Passes for default location (London). Set your location on the main map for personalized predictions.

Altitude History

Loading altitude history...

Two-Line Element Set

1 23791U 96009E 26194.84022119 .00000011 00000-0 16418-5 0 9992
2 23791 82.5746 308.8422 0008726 13.4785 110.6632 12.61705505399725
Epoch: Jul 13, 2026 • Age: 11 hours

Current Status

Altitude 1424.3 km
Apogee / Perigee N/A
Velocity 7.15 km/s
Sub-Earth Point -34.72°S, 89.91°W
Launch Date Feb 19, 1996
Age 30.3 years
Type other

Technical Details

Classification Payload
Mass 225.00 kg
Dry Mass 225.00 kg
Total Mass 225.00 kg
Length 1.60 m
Diameter 0.80 m
Span 7.00 m
Shape Cyl + Ant
Manufacturer NPOPMR
Bus Type Strela-3
Phase Status In Orbit
Owner/State VKS/RU

Most Searched